Time,TemperatureF,DewpointF,PressureIn,WindDirection,WindDirectionDegrees,WindSpeedMPH,WindSpeedGustMPH,Humidity,HourlyPrecipIn,Conditions,Clouds,dailyrainin,SolarRadiationWatts/m^2,SoftwareType,DateUTC
2015-03-01 00:00:00,17.2,-10.4,30.50,SSE,158,4.7,7.4,28,0.00,CLR,,0.00,0.0,WeatherDisplay:10.37,2015-03-01 05:00:00,
2015-03-01 00:05:00,17.1,-10.5,30.50,SE,135,6.2,9.2,28,0.00,CLR,,0.00,0.0,WeatherDisplay:10.37,2015-03-01 05:05:00,
2015-03-01 00:10:00,17.1,-10.5,30.50,SE,135,4.0,5.8,28,0.00,CLR,,0.00,0.0,WeatherDisplay:10.37,2015-03-01 05:10:00,
2015-03-01 00:15:00,16.9,-8.6,30.50,SSE,158,4.5,5.8,31,0.00,CLR,,0.00,0.0,WeatherDisplay:10.37,2015-03-01 05:15:00,
2015-03-01 00:20:00,16.9,-8.6,30.50,SSE,158,4.7,5.8,31,0.00,CLR,,0.00,0.0,WeatherDisplay:10.37,2015-03-01 05:20:00,
2015-03-01 00:25:00,16.9,-8.6,30.48,SSE,158,3.6,4.6,31,0.00,CLR,,0.00,0.0,WeatherDisplay:10.37,2015-03-01 05:25:00,
2015-03-01 00:30:00,16.9,-8.6,30.48,SSE,158,3.8,4.6,31,0.00,CLR,,0.00,0.0,WeatherDisplay:10.37,2015-03-01 05:30:00,
2015-03-01 00:35:00,16.7,-7.5,30.48,SE,135,2.4,3.5,33,0.00,CLR,,0.00,0.0,WeatherDisplay:10.37,2015-03-01 05:35:00,
2015-03-01 00:40:00,16.7,-7.5,30.48,SSE,158,1.4,2.3,33,0.00,CLR,,0.00,0.0,WeatherDisplay:10.37,2015-03-01 05:40:00,
2015-03-01 00:45:00,16.9,-7.3,30.48,SSE,158,2.6,4.6,33,0.00,CLR,,0.00,0.0,WeatherDisplay:10.37,2015-03-01 05:45:00,
2015-03-01 00:50:00,16.9,-7.3,30.48,SSE,158,2.9,3.5,33,0.00,CLR,,0.00,0.0,WeatherDisplay:10.37,2015-03-01 05:50:00,
2015-03-01 00:55:00,16.9,-6.7,30.48,ESE,112,1.4,2.3,34,0.00,CLR,,0.00,0.0,WeatherDisplay:10.37,2015-03-01 05:55:00,
2015-03-01 01:00:00,16.9,-6.7,30.48,SSE,158,2.0,2.3,34,0.00,CLR,,0.00,0.0,WeatherDisplay:10.37,2015-03-01 06:00:00,
2015-03-01 01:05:00,16.9,-6.7,30.48,East,90,1.4,2.3,34,0.00,CLR,,0.00,0.0,WeatherDisplay:10.37,2015-03-01 06:05:00,
2015-03-01 01:10:00,16.9,-6.7,30.48,ENE,68,1.4,2.3,34,0.00,CLR,,0.00,0.0,WeatherDisplay:10.37,2015-03-01 06:10:00,
2015-03-01 01:15:00,16.9,-6.7,30.48,East,90,2.4,2.9,34,0.00,CLR,,0.00,0.0,WeatherDisplay:10.37,2015-03-01 06:15:00,
2015-03-01 01:20:00,16.9,-6.7,30.48,ENE,68,1.2,2.4,34,0.00,CLR,,0.00,0.0,WeatherDisplay:10.37,2015-03-01 06:20:00,
2015-03-01 01:25:00,16.9,-6.7,30.44,ENE,68,2.4,3.5,34,0.00,CLR,,0.00,0.0,WeatherDisplay:10.37,2015-03-01 06:25:00,
2015-03-01 01:30:00,16.7,-6.9,30.44,ESE,112,1.6,3.1,34,0.00,CLR,,0.00,0.0,WeatherDisplay:10.37,2015-03-01 06:30:00,
2015-03-01 01:35:00,16.7,-6.9,30.44,ENE,68,2.2,2.3,34,0.00,CLR,,0.00,0.0,WeatherDisplay:10.37,2015-03-01 06:35:00,
2015-03-01 01:40:00,16.9,-6.7,30.44,ENE,68,2.2,2.4,34,0.00,CLR,,0.00,0.0,WeatherDisplay:10.37,2015-03-01 06:40:00,
2015-03-01 01:45:00,16.7,-6.9,30.44,ENE,68,1.4,2.0,34,0.00,CLR,,0.00,0.0,WeatherDisplay:10.37,2015-03-01 06:45:00,
2015-03-01 01:50:00,16.7,-6.9,30.44,NE,45,2.2,2.3,34,0.00,CLR,,0.00,0.0,WeatherDisplay:10.37,2015-03-01 06:50:00,
2015-03-01 01:55:00,16.7,-6.9,30.44,NE,45,1.4,2.3,34,0.00,CLR,,0.00,0.0,WeatherDisplay:10.37,2015-03-01 06:55:00,
2015-03-01 02:00:00,16.7,-6.9,30.44,NE,45,1.6,2.4,34,0.00,CLR,,0.00,0.0,WeatherDisplay:10.37,2015-03-01 07:00:00,
2015-03-01 02:05:00,16.7,-6.9,30.44,NNE,22,1.6,3.5,34,0.00,CLR,,0.00,0.0,WeatherDisplay:10.37,2015-03-01 07:05:00,
2015-03-01 02:10:00,16.7,-6.9,30.44,NE,45,1.2,1.6,34,0.00,CLR,,0.00,0.0,WeatherDisplay:10.37,2015-03-01 07:10:00,
2015-03-01 02:15:00,16.7,-6.9,30.44,East,90,1.2,2.3,34,0.00,CLR,,0.00,0.0,WeatherDisplay:10.37,2015-03-01 07:15:00,
2015-03-01 02:20:00,16.7,-6.3,30.44,East,90,1.4,2.6,35,0.00,CLR,,0.00,0.0,WeatherDisplay:10.37,2015-03-01 07:20:00,
2015-03-01 02:25:00,16.7,-6.3,30.44,East,90,1.6,2.3,35,0.00,CLR,,0.00,0.0,WeatherDisplay:10.37,2015-03-01 07:25:00,
2015-03-01 02:30:00,16.7,-6.3,30.44,NE,45,1.4,2.2,35,0.00,CLR,,0.00,0.0,WeatherDisplay:10.37,2015-03-01 07:30:00,
2015-03-01 02:35:00,16.7,-6.3,30.44,NE,45,1.4,2.3,35,0.00,CLR,,0.00,0.0,WeatherDisplay:10.37,2015-03-01 07:35:00,
2015-03-01 02:40:00,16.7,-6.3,30.42,ENE,68,2.2,3.6,35,0.00,CLR,,0.00,0.0,WeatherDisplay:10.37,2015-03-01 07:40:00,
2015-03-01 02:45:00,16.7,-6.3,30.42,NNE,22,2.0,2.9,35,0.00,CLR,,0.00,0.0,WeatherDisplay:10.37,2015-03-01 07:45:00,
2015-03-01 02:50:00,16.5,-6.4,30.42,NE,45,1.6,2.6,35,0.00,CLR,,0.00,0.0,WeatherDisplay:10.37,2015-03-01 07:50:00,
2015-03-01 02:55:00,16.5,-6.4,30.42,NE,45,2.0,3.5,35,0.00,CLR,,0.00,0.0,WeatherDisplay:10.37,2015-03-01 07:55:00,
2015-03-01 03:00:00,16.5,-6.4,30.42,NE,45,1.4,3.5,35,0.00,CLR,,0.00,0.0,WeatherDisplay:10.37,2015-03-01 08:00:00,
2015-03-01 03:05:00,16.5,-6.4,30.42,NE,45,2.9,4.6,35,0.00,CLR,,0.00,0.0,WeatherDisplay:10.37,2015-03-01 08:05:00,
2015-03-01 03:10:00,16.5,-6.4,30.42,NE,45,2.4,2.6,35,0.00,CLR,,0.00,0.0,WeatherDisplay:10.37,2015-03-01 08:10:00,
2015-03-01 03:15:00,16.5,-6.4,30.42,NE,45,2.4,3.5,35,0.00,CLR,,0.00,0.0,WeatherDisplay:10.37,2015-03-01 08:15:00,
2015-03-01 03:20:00,16.5,-6.4,30.42,NE,45,1.2,2.4,35,0.00,CLR,,0.00,0.0,WeatherDisplay:10.37,2015-03-01 08:20:00,
2015-03-01 03:25:00,16.7,-5.7,30.42,NNE,22,1.6,2.3,36,0.00,CLR,,0.00,0.0,WeatherDisplay:10.37,2015-03-01 08:25:00,
2015-03-01 03:30:00,16.7,-5.7,30.42,NE,45,2.4,3.5,36,0.00,CLR,,0.00,0.0,WeatherDisplay:10.37,2015-03-01 08:30:00,
2015-03-01 03:35:00,16.7,-5.7,30.42,NE,45,2.2,2.3,36,0.00,CLR,,0.00,0.0,WeatherDisplay:10.37,2015-03-01 08:35:00,
2015-03-01 03:40:00,16.7,-5.7,30.42,ENE,68,1.6,2.3,36,0.00,CLR,,0.00,0.0,WeatherDisplay:10.37,2015-03-01 08:40:00,